Weather History for KEMV - April, 2013

Change the Weather History Date:

Saturday, April 6, 2013

  Actual Average Record
Temperature  
Mean Temperature 46 °F -  
Max Temperature 59 °F 66 °F 82 °F (1985)
Min Temperature 33 °F 42 °F 26 °F (2004)
Degree Days  
Heating Degree Days 19    
Moisture  
Dew Point 32 °F    
Average Humidity 60    
Maximum Humidity 100    
Minimum Humidity 34    
Precipitation  
Precipitation 0.00 in - - ()
Sea Level Pressure  
Sea Level Pressure 30.24 in    
Wind  
Wind Speed 4 mph (NE)    
Max Wind Speed 12 mph    
Max Gust Speed 18 mph    
Visibility 10 miles    
Events      
Averages and records for this station are not official NWS values.
T = Trace of Precipitation, MM = Missing Value Source: NWS Daily Summary

Daily Weather History Graph

Daily Weather History Graph

Search for Another Location

Airport or City:

Trip Planner

Search our weather history database for the weather conditions in past years. The results will help you decide how hot, cold, wet, or windy it might be!

Date:

Astronomy

Apr. 06, 2013 Rise Set
Actual Time 6:48 AM EDT 7:36 PM EDT
Civil Twilight 6:22 AM EDT 8:03 PM EDT
Nautical Twilight 5:51 AM EDT 8:34 PM EDT
Astronomical Twilight 5:19 AM EDT 9:06 PM EDT
Moon 4:25 AM EDT (4/6) 4:08 PM EDT (4/6)
Length of Visible Light 13h 40m
Length of Day
12h 48m
Waning Crescent, 15% of the Moon is Illuminated
Apr 6
Waning Crescent
Apr 10
New
Apr 18
First Quarter
Apr 25
Full
May 2
Last Quarter

Hourly Weather History & Observations

Time (EDT) Temp. Windchill Dew Point Humidity Pressure Visibility Wind Dir Wind Speed Gust Speed Precip Events Conditions
12:15 AM 39.2 °F - 39.2 °F 100% 30.02 in 10.0 mi Calm Calm - N/A   Clear
12:35 AM 39.2 °F - 39.2 °F 100% 30.03 in 10.0 mi Calm Calm - N/A   Clear
12:55 AM 42.8 °F 40.1 °F 42.8 °F 100% 30.05 in 10.0 mi North 4.6 mph 16.1 mph N/A   Clear
1:15 AM 41.0 °F - 41.0 °F 100% 30.04 in 10.0 mi Calm Calm - N/A   Clear
1:35 AM 41.0 °F 39.0 °F 39.2 °F 93% 30.05 in 10.0 mi NNW 3.5 mph - N/A   Clear
1:55 AM 42.8 °F 41.1 °F 37.4 °F 81% 30.06 in - NNW 3.5 mph - N/A   Clear
2:15 AM 42.8 °F 40.1 °F 35.6 °F 76% 30.07 in 10.0 mi NNW 4.6 mph - N/A   Clear
2:35 AM 41.0 °F 39.0 °F 35.6 °F 81% 30.07 in 10.0 mi NNW 3.5 mph - N/A   Clear
2:55 AM 39.2 °F - 35.6 °F 87% 30.07 in - Calm Calm - N/A   Unknown
3:15 AM 37.4 °F 34.9 °F 33.8 °F 87% 30.09 in 10.0 mi NW 3.5 mph - N/A   Clear
3:35 AM 37.4 °F - 35.6 °F 93% 30.10 in 10.0 mi Calm Calm - N/A   Clear
3:55 AM 37.4 °F - 35.6 °F 93% 30.12 in 10.0 mi Calm Calm - N/A   Clear
4:15 AM 35.6 °F - 35.6 °F 100% 30.13 in 10.0 mi Calm Calm - N/A   Clear
4:35 AM 35.6 °F - 35.6 °F 100% 30.14 in 10.0 mi Calm Calm - N/A   Clear
4:55 AM 35.6 °F - 35.6 °F 100% 30.15 in 10.0 mi Calm Calm - N/A   Clear
5:15 AM 35.6 °F - 32.0 °F 87% 30.15 in 10.0 mi Calm Calm - N/A   Clear
5:35 AM 33.8 °F - 32.0 °F 93% 30.16 in - Calm Calm - N/A   Unknown
5:55 AM 33.8 °F - 32.0 °F 93% 30.17 in 10.0 mi Calm Calm - N/A   Clear
6:15 AM 41.0 °F 36.4 °F 28.4 °F 61% 30.18 in 10.0 mi North 6.9 mph - N/A   Clear
6:35 AM 41.0 °F 37.1 °F 28.4 °F 61% 30.20 in 10.0 mi NNW 5.8 mph - N/A   Clear
6:55 AM 41.0 °F 37.1 °F 28.4 °F 61% 30.21 in 10.0 mi North 5.8 mph - N/A   Clear
7:15 AM 39.2 °F 37.0 °F 28.4 °F 65% 30.23 in 10.0 mi North 3.5 mph - N/A   Clear
7:35 AM 39.2 °F 35.9 °F 28.4 °F 65% 30.24 in - NNW 4.6 mph - N/A   Clear
7:55 AM 41.0 °F 36.4 °F 30.2 °F 65% 30.25 in 10.0 mi NNW 6.9 mph - N/A   Clear
8:15 AM 42.8 °F 38.0 °F 28.4 °F 57% 30.26 in 10.0 mi North 8.1 mph - N/A   Clear
8:35 AM 44.6 °F 40.2 °F 28.4 °F 53% 30.27 in 10.0 mi North 8.1 mph - N/A   Clear
8:55 AM 44.6 °F 38.8 °F 28.4 °F 53% 30.28 in 10.0 mi North 11.5 mph 17.3 mph N/A   Clear
9:15 AM 44.6 °F 39.2 °F 28.4 °F 53% 30.28 in 10.0 mi North 10.4 mph - N/A   Clear
9:35 AM 46.4 °F 41.5 °F 28.4 °F 50% 30.28 in 10.0 mi North 10.4 mph 18.4 mph N/A   Clear
9:55 AM 46.4 °F 41.9 °F 28.4 °F 50% 30.29 in 10.0 mi NNE 9.2 mph - N/A   Clear
10:15 AM 50.0 °F - 30.2 °F 47% 30.30 in 10.0 mi NNE 11.5 mph - N/A   Clear
10:35 AM 50.0 °F - 30.2 °F 47% 30.31 in 10.0 mi NNW 10.4 mph - N/A   Clear
10:55 AM 50.0 °F - 30.2 °F 47% 30.32 in 10.0 mi North 8.1 mph - N/A   Clear
11:15 AM 50.0 °F - 30.2 °F 47% 30.32 in 10.0 mi NNW 9.2 mph - N/A   Clear
11:35 AM 51.8 °F - 30.2 °F 44% 30.31 in 10.0 mi NNW 11.5 mph - N/A   Clear
11:55 AM 51.8 °F - 32.0 °F 47% 30.31 in 10.0 mi NNE 5.8 mph - N/A   Clear
12:15 PM 53.6 °F - 32.0 °F 44% 30.31 in 10.0 mi NW 6.9 mph - N/A   Clear
12:35 PM 53.6 °F - 32.0 °F 44% 30.31 in 10.0 mi ENE 10.4 mph - N/A   Clear
12:55 PM 53.6 °F - 30.2 °F 41% 30.31 in 10.0 mi NNW 6.9 mph - N/A   Clear
1:15 PM 53.6 °F - 30.2 °F 41% 30.30 in 10.0 mi NNE 8.1 mph - N/A   Clear
1:35 PM 53.6 °F - 30.2 °F 41% 30.30 in 10.0 mi ESE 4.6 mph - N/A   Clear
1:55 PM 55.4 °F - 30.2 °F 38% 30.29 in 10.0 mi ENE 4.6 mph - N/A   Clear
2:15 PM 55.4 °F - 30.2 °F 38% 30.29 in 10.0 mi ENE 3.5 mph - N/A   Clear
2:35 PM 55.4 °F - 32.0 °F 41% 30.28 in 10.0 mi North 8.1 mph - N/A   Clear
2:55 PM 57.2 °F - 32.0 °F 38% 30.28 in 10.0 mi East 5.8 mph - N/A   Clear
3:15 PM 59.0 °F - 32.0 °F 36% 30.27 in 10.0 mi ENE 8.1 mph - N/A   Clear
3:35 PM 57.2 °F - 30.2 °F 36% 30.27 in 10.0 mi Calm Calm - N/A   Clear
3:55 PM 57.2 °F - 30.2 °F 36% 30.26 in - NNE 3.5 mph - N/A   Clear
4:15 PM 59.0 °F - 32.0 °F 36% 30.26 in 10.0 mi North 5.8 mph - N/A   Clear
4:35 PM 59.0 °F - 30.2 °F 34% 30.25 in 10.0 mi Calm Calm - N/A   Clear
4:55 PM 59.0 °F - 32.0 °F 36% 30.26 in 10.0 mi ESE 6.9 mph - N/A   Clear
5:15 PM 57.2 °F - 30.2 °F 36% 30.26 in 10.0 mi ENE 6.9 mph - N/A   Clear
5:35 PM 57.2 °F - 32.0 °F 38% 30.26 in 10.0 mi East 9.2 mph - N/A   Clear
5:55 PM 55.4 °F - 30.2 °F 38% 30.27 in 10.0 mi ENE 10.4 mph - N/A   Clear
6:15 PM 55.4 °F - 30.2 °F 38% 30.27 in 10.0 mi ENE 6.9 mph - N/A   Clear
6:35 PM 53.6 °F - 26.6 °F 35% 30.28 in 10.0 mi ENE 8.1 mph - N/A   Clear
6:55 PM 53.6 °F - 26.6 °F 35% 30.28 in 10.0 mi East 8.1 mph - N/A   Clear
7:15 PM 51.8 °F - 30.2 °F 44% 30.28 in 10.0 mi East 8.1 mph - N/A   Clear
7:35 PM 50.0 °F - 32.0 °F 50% 30.28 in 10.0 mi ENE 4.6 mph - N/A   Clear
7:55 PM 50.0 °F - 32.0 °F 50% 30.29 in 10.0 mi ENE 6.9 mph - N/A   Clear
8:15 PM 48.2 °F - 32.0 °F 54% 30.29 in 10.0 mi East 6.9 mph - N/A   Clear
8:35 PM 46.4 °F 42.4 °F 32.0 °F 57% 30.30 in 10.0 mi ENE 8.1 mph - N/A   Clear
8:55 PM 46.4 °F 42.4 °F 32.0 °F 57% 30.31 in 10.0 mi East 8.1 mph - N/A   Clear
9:15 PM 46.4 °F 41.5 °F 32.0 °F 57% 30.32 in 10.0 mi East 10.4 mph 18.4 mph N/A   Clear
9:35 PM 44.6 °F 39.7 °F 32.0 °F 61% 30.32 in 10.0 mi East 9.2 mph - N/A   Clear
9:55 PM 44.6 °F 39.7 °F 32.0 °F 61% 30.33 in 10.0 mi East 9.2 mph - N/A   Clear
10:15 PM 44.6 °F 40.2 °F 30.2 °F 57% 30.33 in 10.0 mi East 8.1 mph - N/A   Clear
10:35 PM 42.8 °F 37.5 °F 30.2 °F 61% 30.33 in - East 9.2 mph - N/A   Clear
10:55 PM 42.8 °F 38.6 °F 32.0 °F 66% 30.33 in 10.0 mi East 6.9 mph - N/A   Clear
11:15 PM 42.8 °F 41.1 °F 32.0 °F 66% 30.33 in - East 3.5 mph - N/A   Clear
11:35 PM 41.0 °F 38.0 °F 32.0 °F 70% 30.34 in 10.0 mi East 4.6 mph - N/A   Clear
11:55 PM 41.0 °F 39.0 °F 32.0 °F 70% 30.33 in 10.0 mi East 3.5 mph - N/A   Clear